Terminal Aerodrome Forecast
Issued by NWS

Home | Current Version | Previous Version | Text Only | Print | Product List | Glossary On
Versions: 1 2 3 4 5 6 7 8 9 10 11 12 13 14 15 16 17 18 19 20 21 22 23 24 25 26 27 28 29 30 31 32 33 34 35
000
FTUS46 KOTX 292040 AAB
TAFSFF
TAF AMD
KSFF 292040Z 2921/3018 26015G23KT 3SM -SHRA HZ FU DU SCT030 OVC070
     FM292200 24010G20KT 6SM HZ BKN250
     FM300300 22009KT P6SM SCT100 SCT200
     FM301500 22013G21KT P6SM SCT040 BKN080=

USA.gov is the U.S. government's official web portal to all federal, state and local government web resources and services.